Miscellaneous Local Product
Issued by NWS North Platte, NE

Home | Current Version | Previous Version | Text Only | Print | Product List | Glossary On
Versions: 1 2 3 4 5 6 7 8 9 10 11 12 13 14 15 16 17 18 19 20 21 22 23 24 25 26 27 28 29 30 31 32 33 34 35 36 37 38 39 40 41 42 43 44 45 46 47 48 49 50
000
AXUS43 KLBF 290310
MISLBF


WESTERN AND NORTH CENTRAL NEBRASKA HOURLY WEATHER ROUNDUP
NATIONAL WEATHER SERVICE NORTH PLATTE NE
1000 PM CDT TUE JUL 28 2015

***STATIONS NOT REPORTING VARIABLES SUCH AS SKY/WEATHER OR
PRESSURE ARE PROVIDED BY THE NEBRASKA DEPARTMENT OF
ROADS...RAWS...AND APRS NETWORKS...AND ARE NOT UNDER
NATIONAL WEATHER SERVICE QUALITY CONTROL***

...OBSERVATIONS IN AND NEAR THE EASTERN PANHANDLE OF NEBRASKA...

CITY           SKY/WX    TMP DP  RH WIND       PRES   REMARKS
PINE RIDGE     CLEAR     58  44  60 E3        30.14R
CHADRON        CLEAR     62  43  49 NW3       30.14R
ALLIANCE       CLEAR     62  42  47 NE9       30.16R
SIDNEY         CLEAR     59  38  45 NE5       30.20R
BIG SPRINGS      N/A     63  53  69 CALM        N/A
$$

...OBSERVATIONS IN NORTH CENTRAL NEBRASKA...

CITY           SKY/WX    TMP DP  RH WIND       PRES   REMARKS
VALENTINE      CLEAR     67  46  47 NW8       30.09R
THEDFORD       CLEAR     67  49  52 CALM      30.12R
AINSWORTH      CLEAR     70  45  40 N5        30.09R
O`NEILL        CLEAR     68  59  74 N5        30.05R
ORD            CLEAR     64  58  80 NW5       30.04R
BROKEN BOW     CLEAR     66  49  54 N5        30.07R
SPRINGVIEW       N/A     69  53  57 CALM        N/A
CHAMBERS         N/A     64  50  60 CALM        N/A
EWING            N/A     64  58  82 CALM        N/A
$$

...OBSERVATIONS IN SOUTHWEST NEBRASKA AND FAR NORTHEAST COLORADO...

CITY           SKY/WX    TMP DP  RH WIND       PRES   REMARKS
WRAY           FAIR      69  48  46 CALM      30.16R
HOLYOKE        FAIR      64  50  59 CALM      30.16R
IMPERIAL       CLEAR     67  49  52 E3        30.13R
OGALLALA       CLEAR     67  47  48 CALM      30.13R
NORTH PLATTE   CLEAR     64  50  60 NE7       30.10R
MCCOOK         CLEAR     67  52  58 N6        30.08R
LEXINGTON      CLEAR     67  59  74 N7        30.07R
PAXTON           N/A     68  58  69 CALM        N/A
BRADY            N/A     67  51  56 CALM        N/A
CALLAWAY         N/A     64  56  77 N5          N/A
$$

...NORTH PLATTE AREA...

CITY           SKY/WX    TMP DP  RH WIND       PRES   REMARKS
AIRPORT        CLEAR     64  50  60 NE7       30.10R
DOWNTOWN         N/A     73  50  43 CALM        N/A
SANDRIDGE        N/A     71  49  45 CALM        N/A
HILLCREST        N/A     70  48  45 NE6         N/A
$$

...SOME WEATHER OBSERVATIONS FROM AROUND THE REGION...

CITY           SKY/WX    TMP DP  RH WIND       PRES   REMARKS
DENVER         MOCLDY    73  35  25 E15       30.22R
LARAMIE        PTCLDY    59  17  19 NW7       30.34R
CHEYENNE       CLOUDY    71  23  16 N8        30.27R
SCOTTSBLUFF    CLEAR     66  48  52 N6        30.18R
RAPID CITY     CLEAR     63  45  51 N14       30.13R
PIERRE         CLEAR     70  50  49 NW15      30.02R
WINNER         FAIR      68  52  56 NW7       30.06R
SIOUX FALLS    PTCLDY    66  59  78 CALM      29.98R
OMAHA          CLOUDY    74  66  76 N9        29.96R
GRAND ISLAND   CLEAR     66  59  78 N6        30.03R
KANSAS CITY    PTCLDY    83  72  69 S9        29.91R
WICHITA        PTCLDY    88  71  57 S13       29.90R HX  94
HAYS           CLEAR     75  55  50 N12       30.01R
LIBERAL        CLOUDY    79  61  53 N9        30.03R
GOODLAND       CLEAR     63  51  65 N7        30.14R
$$



USA.gov is the U.S. government's official web portal to all federal, state and local government web resources and services.